Location: Newark
(44.6028°N, 124.0883°W)
Time: 04:51:05
(UTC+00:00)

Altair - Visible Passes

Search period start: 18 October 2019 00:00
Search period end: 28 October 2019 00:00
Orbit: 1501 x 1683 km, 47.2° (Epoch: 16 October)

Date Brightness Start Highest point End Pass type
(mag) Time Alt. Az. Time Alt. Az. Time Alt. Az.
18 Oct 8.1 01:42:53 10° WNW 01:52:46 64° SSW 02:02:45 10° SE visible
18 Oct 9.3 03:48:51 10° W 03:56:15 24° SW 04:03:40 10° S visible
19 Oct 9.3 03:23:27 10° WNW 03:31:11 26° SW 03:38:59 10° S visible
20 Oct 9.3 02:58:04 10° WNW 03:06:08 28° SW 03:14:14 10° S visible
21 Oct 9.2 02:32:42 10° WNW 02:41:03 31° SW 02:49:27 10° S visible
22 Oct 9.2 02:07:24 10° WNW 02:15:58 33° SW 02:24:37 10° SSE visible
23 Oct 9.2 01:42:06 10° WNW 01:50:52 36° SW 01:59:44 10° SSE visible
25 Oct 10.3 03:02:10 10° WSW 03:03:24 10° WSW 03:04:39 10° SW visible
26 Oct 10.2 02:35:06 10° WSW 02:38:24 12° WSW 02:41:44 10° SW visible
27 Oct 10.2 02:08:58 10° W 02:13:23 14° WSW 02:17:51 10° SSW visible
